[[{"header":{"parameterUnit":"m.s-1","parameterCategory":1,"la1":30.2991,"la2":30.254,"lo1":-89.0895,"lo2":-89.0444,"dy":0.0017,"dx":0.0017,"nx":28,"ny":28,"refTime":"2024-07-23T03:00:00:Z","depth":0,"parameterNumber":2,"parameterNumberName":"U-component_of_WINDS"},"data":[0,0,0,0,0,0,0,0,0,0,0,0,0,0,0,0,0,0,0,0,0,0,0,0,0,0,0,0,0,0,0,0,0,0,0,0,0,0,0,0,0,0,0,0,0,0,0,0,0,0,0,0,0,0,0,0,0,0,-3.5076,-3.5076,0,-3.5073,-3.5073,-3.5073,-3.5022,-3.5021,-3.5019,-3.5018,-3.5015,-3.5016,-3.5017,0,0,0,0,0,0,0,0,0,0,0,0,0,-3.5035,-3.5036,-3.5076,-3.5076,-3.5075,-3.5073,-3.5073,-3.5073,-3.5022,-3.5021,-3.5019,-3.5017,-3.5015,-3.5016,-3.5017,0,0,0,0,0,0,0,0,0,0,0,0,0,-3.5045,-3.5037,-3.5076,-3.505,-3.5047,-3.5073,-3.5073,-3.5073,-3.5022,-3.502,-3.5018,-3.5017,-3.5014,-3.5016,-3.5018,-3.5068,0,0,-3.5023,-3.5024,0,0,0,0,0,0,0,0,-3.5044,-3.5046,-3.5054,-3.5052,-3.5049,-3.5046,-3.5058,-3.5072,-3.5023,-3.5032,-3.5018,-3.5016,-3.5027,-3.5027,-3.5031,-3.5068,-3.5068,-3.5023,-3.5024,-3.5025,-3.5025,0,0,0,0,0,0,0,-3.5044,-3.5046,-3.5075,-3.5054,-3.5051,-3.5038,-3.5037,-3.506,-3.504,-3.5031,-3.5027,-3.5028,-3.5025,-3.503,-3.5031,-3.5068,-3.5023,-3.5024,-3.5026,-3.5026,-3.5146,-3.5148,0,0,0,0,0,0,-3.5047,-3.5046,-3.5075,-3.5075,-3.5042,-3.5041,-3.504,-3.5049,-3.504,-3.5037,-3.5029,-3.5025,-3.5028,-3.5029,-3.5031,-3.5089,-3.5025,-3.5026,-3.5027,-3.5144,-3.5146,-3.5149,0,0,0,0,0,0,-3.5046,-3.505,-3.5075,-3.5059,-3.5062,-3.5043,-3.5054,-3.505,-3.5054,-3.5039,-3.5035,-3.5038,-3.5026,-3.5028,-3.5059,-3.5088,-3.5027,-3.5029,-3.5141,-3.5144,-3.5147,-3.5205,0,0,0,0,0,0,-3.5045,-3.505,-3.5069,-3.506,-3.5063,-3.5103,-3.5056,-3.5051,-3.5058,-3.5052,-3.5046,-3.5043,-3.5025,-3.5057,-3.5061,-3.5089,-3.503,-3.5138,-3.5143,-3.5146,-3.5201,-3.521,-3.5218,0,0,0,0,0,-3.5044,-3.5085,-3.507,-3.5073,-3.5086,-3.5105,-3.5106,-3.5085,-3.506,-3.5079,-3.5069,-3.5043,-3.5085,-3.506,-3.5065,-3.5094,-3.5136,-3.5141,-3.5146,-3.5197,-3.5208,-3.5218,0,0,0,0,0,0,-3.5096,-3.5083,-3.5066,-3.5106,-3.5107,-3.5096,-3.5119,-3.5098,-3.5106,-3.5101,-3.5074,-3.5073,-3.5108,-3.5104,-3.5078,-3.5142,-3.5106,-3.5112,-3.5143,-3.5154,-3.5162,-3.5162,-3.5032,0,0,0,0,0,-3.5112,-3.5129,-3.5117,-3.5153,-3.5155,-3.5137,-3.5145,-3.5129,-3.5129,-3.5129,-3.5121,-3.5123,-3.5136,-3.5145,-3.5156,-3.5201,-3.5198,-3.5223,-3.5232,-3.5239,-3.5244,-3.5267,-3.5277,-3.5164,-3.5164,-3.5164,0,0,-3.5145,-3.5141,-3.5153,-3.5163,-3.5162,-3.5181,-3.5138,-3.5159,-3.5172,-3.5132,-3.516,-3.5156,-3.5155,-3.5193,-3.521,-3.5191,-3.5275,-3.5245,-3.5251,-3.5252,-3.5273,-3.5284,-3.5293,-3.5168,-3.5167,-3.5167,0,0,-3.5215,-3.5213,-3.5243,-3.5244,-3.5243,-3.5232,-3.5239,-3.5232,-3.5228,-3.5256,-3.5227,-3.5243,-3.5266,-3.5267,-3.527,-3.5343,-3.5319,-3.5348,-3.5392,-3.5415,-3.5424,-3.5432,-3.5457,-3.5466,-3.5353,-3.5353,-3.5353,0,-3.5256,-3.5282,-3.5261,-3.5284,-3.529,-3.5256,-3.5286,-3.5287,-3.5291,-3.5295,-3.5275,-3.5304,-3.5301,-3.5339,-3.5357,-3.5362,-3.5369,-3.5347,-3.5425,-3.5432,-3.5439,-3.5463,-3.5472,-3.5357,-3.5356,-3.5356,-3.5356,0,-3.5332,-3.5352,-3.5376,-3.538,-3.5389,-3.5416,-3.5398,-3.541,-3.5394,-3.5385,-3.5414,-3.5411,-3.5421,-3.5429,-3.5413,-3.5465,-3.5453,-3.543,-3.5392,-3.5454,-3.5475,-3.5484,-3.5361,-3.536,-3.5359,-3.5358,0,0,-3.5432,-3.5426,-3.5435,-3.5437,-3.5436,-3.545,-3.5476,-3.5486,-3.5496,-3.5501,-3.5521,-3.5543,-3.5521,-3.5525,-3.551,-3.553,-3.5587,-3.5504,-3.5503,-3.5518,-3.5643,-3.566,-3.5671,-3.5572,-3.5574,-3.5575,-3.5643,0,-3.5498,-3.5541,-3.5523,-3.5568,-3.5585,-3.5555,-3.5577,-3.5579,-3.5571,-3.5585,-3.5577,-3.5592,-3.5563,-3.5565,-3.5585,-3.5576,-3.5612,-3.5571,-3.559,-3.5591,-3.5589,-3.5682,-3.5699,-3.5763,-3.5651,-3.5653,-3.5654,0,-3.558,-3.5589,-3.5635,-3.5631,-3.5638,-3.5658,-3.5667,-3.5681,-3.5682,-3.5676,-3.5682,-3.5662,-3.5687,-3.5652,-3.5685,-3.5659,-3.5666,-3.5663,-3.5665,-3.5664,-3.5625,-3.5682,-3.5783,-3.5792,-3.5667,-3.5666,-3.5665,0,-3.5647,-3.567,-3.5701,-3.5704,-3.5701,-3.5716,-3.5715,-3.5715,-3.5722,-3.5731,-3.5735,-3.5746,-3.5752,-3.5761,-3.5745,-3.5721,-3.578,-3.5744,-3.5775,-3.5775,-3.5787,-3.5786,-3.5888,-3.5795,-3.5795,-3.5794,-3.5794,0,-3.5721,-3.575,-3.5731,-3.5749,-3.5782,-3.5762,-3.5794,-3.579,-3.5791,-3.5808,-3.5783,-3.58,-3.5779,-3.5794,-3.5782,-3.5811,-3.5814,-3.5809,-3.5805,-3.581,-3.5811,-3.5813,-3.5807,-3.5797,-3.5796,-3.5796,-3.5795,0,-3.5799,-3.5788,-3.5819,-3.5814,-3.5814,-3.5838,-3.5834,-3.5851,-3.5843,-3.5865,-3.587,-3.5857,-3.5873,-3.5859,-3.5875,-3.5867,-3.5905,-3.5896,-3.5905,-3.5902,-3.5933,-3.593,-3.6039,-3.6052,-3.5951,-3.5952,-3.5953,0,-3.5847,-3.5869,-3.5867,-3.5877,-3.5879,-3.5895,-3.5904,-3.5886,-3.5896,-3.59,-3.5917,-3.5932,-3.5942,-3.597,-3.5962,-3.5974,-3.5963,-3.6001,-3.5965,-3.597,-3.5962,-3.5961,-3.5962,-3.6008,-3.6009,-3.601,-3.6011,0,-3.5932,-3.5925,-3.5938,-3.595,-3.5961,-3.5969,-3.5976,-3.5985,-3.5968,-3.598,-3.5997,-3.6005,-3.6022,-3.6036,-3.6046,-3.6045,-3.6025,-3.6023,-3.603,-3.6034,-3.6038,-3.6035,-3.5923,-3.6019,-3.6018,-3.6018,-3.6017,-3.6017,-3.5995,-3.6013,-3.6015,-3.6031,-3.6035,-3.6041,-3.6057,-3.6052,-3.6066,-3.6079,-3.6068,-3.6088,-3.609,-3.6102,-3.6104,-3.6119,-3.6103,-3.6114,-3.6117,-3.612,-3.6124,-3.6038,-3.6121,-3.6121,-3.612,-3.612,-3.612,0,-3.6078,-3.6078,-3.6093,-3.6103,-3.6116,-3.6098,-3.6104,-3.6115,-3.6134,-3.6138,-3.6149,-3.6169,-3.6184,-3.6178,-3.6191,-3.6204,-3.6195,-3.6208,-3.6206,-3.6206,-3.6137,-3.6129,-3.6215,-3.6215,-3.6215,-3.6215,-3.6215,-3.6215,-3.6122,-3.6152,-3.6146,-3.6178,-3.6178,-3.6198,-3.6203,-3.621,-3.6213,-3.6236,-3.6249,-3.6245,-3.6245,-3.6258,-3.6271,-3.6269,-3.6274,-3.629,-3.6284,-3.622,-3.6211,-3.6202,-3.6193,-3.6292,-3.6292,-3.6351,-3.6352,-3.6352]},{"header":{"parameterUnit":"m.s-1","parameterCategory":1,"la1":30.2991,"la2":30.254,"lo1":-89.0895,"lo2":-89.0444,"dy":0.0017,"dx":0.0017,"nx":28,"ny":28,"refTime":"2024-07-23T03:00:00:Z","depth":0,"parameterNumber":3,"parameterNumberName":"V-component_of_WINDS"},"data":[0,0,0,0,0,0,0,0,0,0,0,0,0,0,0,0,0,0,0,0,0,0,0,0,0,0,0,0,0,0,0,0,0,0,0,0,0,0,0,0,0,0,0,0,0,0,0,0,0,0,0,0,0,0,0,0,0,0,1.2658,1.2658,0,1.261,1.2609,1.2608,1.2567,1.2566,1.2566,1.2565,1.2516,1.2515,1.2514,0,0,0,0,0,0,0,0,0,0,0,0,0,1.2716,1.2716,1.2658,1.2658,1.2657,1.261,1.2609,1.2608,1.2567,1.2566,1.2565,1.2565,1.2516,1.2515,1.2514,0,0,0,0,0,0,0,0,0,0,0,0,0,1.2682,1.2715,1.2658,1.2631,1.2628,1.261,1.2609,1.2608,1.2567,1.2566,1.2565,1.2565,1.2516,1.2515,1.2514,1.252,0,0,1.251,1.2509,0,0,0,0,0,0,0,0,1.2684,1.268,1.2635,1.2632,1.2629,1.2593,1.2611,1.2579,1.2567,1.259,1.2565,1.2564,1.2542,1.2539,1.2531,1.2517,1.2515,1.251,1.2509,1.2508,1.2508,0,0,0,0,0,0,0,1.2686,1.2682,1.2639,1.2635,1.2631,1.2621,1.2615,1.2605,1.2571,1.2588,1.2585,1.2579,1.254,1.2532,1.253,1.2515,1.251,1.2508,1.2508,1.2507,1.2504,1.2505,0,0,0,0,0,0,1.2693,1.2684,1.2641,1.2638,1.2655,1.262,1.2614,1.2606,1.2571,1.2565,1.258,1.2578,1.2535,1.2531,1.2528,1.2533,1.2508,1.2507,1.2506,1.2504,1.2505,1.2505,0,0,0,0,0,0,1.2694,1.2689,1.2643,1.266,1.2653,1.262,1.2611,1.2605,1.2597,1.2565,1.2558,1.2578,1.2534,1.253,1.2522,1.253,1.2506,1.2505,1.2503,1.2504,1.2505,1.2543,0,0,0,0,0,0,1.2696,1.269,1.2692,1.266,1.2652,1.2638,1.2611,1.2605,1.2595,1.2591,1.2561,1.2556,1.2533,1.2524,1.2521,1.2528,1.2504,1.2502,1.2503,1.2505,1.254,1.2545,1.2549,0,0,0,0,0,1.2698,1.2704,1.2692,1.2687,1.2654,1.2638,1.2634,1.2608,1.2596,1.2597,1.2577,1.2557,1.253,1.2524,1.252,1.2527,1.2501,1.2503,1.2504,1.2539,1.2544,1.2549,0,0,0,0,0,0,1.2737,1.2699,1.2685,1.2681,1.2663,1.2631,1.2632,1.2614,1.2599,1.2596,1.2565,1.2559,1.2555,1.254,1.2534,1.2531,1.2513,1.2514,1.2541,1.2545,1.2549,1.2553,1.2503,0,0,0,0,0,1.2745,1.2736,1.2703,1.2703,1.2694,1.2665,1.2657,1.2639,1.2619,1.2611,1.259,1.2572,1.2559,1.2552,1.2538,1.2539,1.2532,1.2541,1.2546,1.2549,1.255,1.2549,1.2553,1.2511,1.2511,1.2511,0,0,1.2762,1.274,1.2736,1.271,1.2694,1.2685,1.2659,1.265,1.2643,1.261,1.2601,1.2586,1.2563,1.256,1.2557,1.2547,1.256,1.2551,1.2554,1.2553,1.2551,1.2556,1.2559,1.2512,1.2511,1.2511,0,0,1.2787,1.277,1.2767,1.2752,1.2728,1.2709,1.2709,1.2679,1.2667,1.2659,1.2634,1.2626,1.2605,1.259,1.258,1.2601,1.2583,1.2598,1.2619,1.2619,1.2622,1.2625,1.2633,1.2636,1.2599,1.2599,1.2599,0,1.2811,1.2796,1.2769,1.2762,1.2752,1.2721,1.2719,1.2706,1.2679,1.2673,1.2662,1.2636,1.2619,1.2612,1.2617,1.261,1.2609,1.2601,1.2624,1.2627,1.2629,1.2636,1.2639,1.2601,1.2601,1.2601,1.2601,0,1.2826,1.2816,1.2818,1.2793,1.2783,1.2778,1.2751,1.2744,1.2727,1.2709,1.2701,1.268,1.2662,1.2659,1.2643,1.265,1.2645,1.263,1.2611,1.2635,1.2641,1.2644,1.2604,1.2603,1.2603,1.2602,0,0,1.2873,1.2834,1.2835,1.2824,1.2796,1.2788,1.2783,1.2766,1.276,1.2744,1.2738,1.2722,1.2708,1.2697,1.2679,1.2679,1.2698,1.2663,1.2662,1.267,1.2705,1.2716,1.272,1.2685,1.2686,1.2686,1.2707,0,1.2894,1.2882,1.2858,1.2854,1.2845,1.2818,1.2813,1.2796,1.2779,1.277,1.2752,1.2741,1.2723,1.2716,1.2715,1.2695,1.2704,1.2694,1.268,1.268,1.2686,1.2723,1.2734,1.2755,1.2709,1.2709,1.271,0,1.2916,1.2901,1.2896,1.287,1.2865,1.2862,1.2844,1.2835,1.2816,1.2804,1.2792,1.2772,1.2765,1.2749,1.274,1.2733,1.2727,1.2717,1.2717,1.2714,1.2696,1.2721,1.2761,1.2764,1.2713,1.2713,1.2713,0,1.2951,1.2929,1.2924,1.2915,1.2884,1.2882,1.287,1.2849,1.2841,1.2826,1.282,1.2805,1.2797,1.2785,1.2762,1.2752,1.2756,1.2737,1.2746,1.2747,1.2747,1.2747,1.2786,1.2744,1.2744,1.2744,1.2744,0,1.2976,1.2974,1.2939,1.2936,1.2934,1.2907,1.2905,1.289,1.2872,1.2865,1.2841,1.2835,1.2805,1.2796,1.2778,1.2774,1.277,1.2761,1.2756,1.2762,1.2764,1.2757,1.2755,1.2745,1.2745,1.2744,1.2744,0,1.3014,1.2991,1.2983,1.2955,1.2948,1.2947,1.2923,1.2919,1.2902,1.2894,1.289,1.2863,1.2852,1.2828,1.2809,1.2797,1.2797,1.2789,1.2804,1.28,1.281,1.281,1.2846,1.285,1.2806,1.2806,1.2807,0,1.3031,1.3029,1.3001,1.2995,1.2983,1.2974,1.2965,1.2939,1.2931,1.2909,1.2908,1.2895,1.2883,1.2866,1.2844,1.2831,1.2822,1.2835,1.2819,1.2826,1.2822,1.2822,1.2822,1.2839,1.2839,1.284,1.284,0,1.3065,1.3054,1.3042,1.3027,1.3017,1.3004,1.2989,1.2986,1.2957,1.2949,1.2937,1.2928,1.291,1.2897,1.288,1.2867,1.2849,1.2846,1.2847,1.2854,1.2862,1.2858,1.2813,1.2845,1.2844,1.2844,1.2844,1.2844,1.3093,1.309,1.307,1.3058,1.3045,1.3032,1.3027,1.3009,1.2999,1.2982,1.2968,1.2957,1.2938,1.2914,1.2903,1.2894,1.2885,1.2887,1.2887,1.2888,1.2891,1.2864,1.2891,1.2891,1.2891,1.2891,1.2891,0,1.3125,1.3111,1.31,1.3081,1.3072,1.3056,1.304,1.3033,1.3024,1.3008,1.2997,1.2984,1.2972,1.295,1.2936,1.2934,1.2925,1.2931,1.293,1.2928,1.29,1.29,1.2938,1.2938,1.2938,1.2938,1.2938,1.2938,1.314,1.3135,1.3122,1.311,1.3096,1.3085,1.3077,1.3066,1.3053,1.3039,1.3029,1.3015,1.2997,1.2982,1.297,1.2964,1.296,1.2968,1.296,1.2934,1.293,1.2925,1.2925,1.2968,1.2968,1.2988,1.2988,1.2989]}]]